• Processing (Info)

  • MPEC 2013-C59 : 2013 CV83

    The following Minor Planet Electronic Circular may be linked-to from your own Web pages, but must not otherwise be redistributed electronically.

    A form allowing access to any MPEC is at the bottom of this page.


    Read MPEC 2013-C58 Read MPEC 2013-C60


    M.P.E.C. 2013-C59                                Issued 2013 Feb. 12, 20:35 UT
    
         The Minor Planet Electronic Circulars contain information on unusual
             minor planets and routine data on comets.  They are published
       on behalf of Commission 20 of the International Astronomical Union by the
              Minor Planet Center, Smithsonian Astrophysical Observatory,
                              Cambridge, MA 02138, U.S.A.
    
                 Prepared using the Tamkin Foundation Computer Network
    
                                  MPC@CFA.HARVARD.EDU
                URL http://www.minorplanetcenter.net/    ISSN 1523-6714
    
                                       2013 CV83
    
    Observations:
         K13C83V* C2013 02 11.35697 09 21 03.38 +50 05 16.3          18.5 VrEC059703
         K13C83V  C2013 02 11.36264 09 21 04.32 +50 03 02.1          18.3 VrEC059703
         K13C83V  C2013 02 11.36837 09 21 05.18 +50 00 45.6          18.4 VrEC059703
         K13C83V  C2013 02 11.37406 09 21 06.08 +49 58 30.5          18.7 VrEC059703
         K13C83V  C2013 02 11.43343 09 21 16.12 +49 35 03.0          18.5 VrEC059703
         K13C83V IC2013 02 11.44767 09 21 17.91 +49 29 15.8          17.8 VqEC059H06
         K13C83V  C2013 02 11.44838 09 21 18.79 +49 29 08.6          18.6 VrEC059703
         K13C83V  C2013 02 11.45456 09 21 19.98 +49 26 43.5          18.6 VrEC059703
         K13C83V IC2013 02 11.46159 09 21 20.66 +49 23 46.3          18.2 VqEC059H06
         K13C83V IC2013 02 11.47556 09 21 23.52 +49 18 15.4          19.0 VqEC059H06
         K13C83V  C2013 02 11.61540 09 22 12.43 +48 26 47.9          18.9 RoEC059300
         K13C83V  C2013 02 11.61639 09 22 12.58 +48 26 25.7          18.9 RoEC059300
         K13C83V  C2013 02 11.61737 09 22 12.72 +48 26 03.6          19.0 RoEC059300
         K13C83V  C2013 02 11.61835 09 22 12.87 +48 25 42.3          18.8 RoEC059300
         K13C83V  C2013 02 11.62031 09 22 13.07 +48 24 58.9          18.6 RoEC059300
         K13C83V KC2013 02 11.91743 09 23 26.66 +46 38 11.4          18.1 RtEC059J04
         K13C83V KC2013 02 11.91795 09 23 26.71 +46 38 00.8          17.9 RtEC059J04
         K13C83V KC2013 02 11.91848 09 23 26.78 +46 37 50.0          18.1 RtEC059J04
         K13C83V KC2013 02 12.23302 09 24 16.90 +44 52 13.0          18.6 RqEC059H36
         K13C83V KC2013 02 12.23497 09 24 17.07 +44 51 35.0          18.8 RqEC059H36
         K13C83V KC2013 02 12.23691 09 24 17.24 +44 50 57.8          18.7 RqEC059H36
         K13C83V  C2013 02 12.30122 09 24 26.83 +44 30 09.7          18.4  rEC059718
         K13C83V  C2013 02 12.30233 09 24 26.99 +44 29 49.8          18.5  rEC059718
         K13C83V  C2013 02 12.30450 09 24 27.17 +44 29 09.4          18.5  rEC059718
    
    Observer details:
    300 Bisei Spaceguard Center--BATTeRS.  Observers A. Asami, T. Sakamoto.  1.0-m
        f/3.0 reflector + CCD.
    703 Catalina Sky Survey.  Observer J. . A. Johnson.  Measurers A. Boattini,
        E. J. Christensen, A. R. Gibbs, A. D. Grauer, R. E. Hill, J. A. Johnson,
        R. A. Kowalski, S. M. Larson, R. H. McNaught.  0.68-m Schmidt + CCD.
    718 Tooele.  Observer P. Wiggins.  0.35-m f/5.5 Schmidt-Cassegrain + CCD.
    H06 iTelescope Observatory, Mayhill.  Observer J. Jahn.  0.51-m f/6.8
        astrograph + CCD + f/4.5 focal reducer.
    H36 Sandlot Observatory, Scranton.  Observer G. Hug.  0.56-m reflector + CCD.
    J04 ESA Optical Ground Station, Tenerife.  Observer P. Ruiz.  Measurers
        A. Knoefel, D. Koschny, M. Busch, E. Schwab.  1.0-m f/4.4 reflector + CCD.
    
    Orbital elements:
    2013 CV83                                                Earth MOID = 0.0191 AU
    Epoch 2013 Apr. 18.0 TT = JDT 2456400.5                 MPC
    M  68.44070              (2000.0)            P               Q
    n   0.57409602     Peri.   86.89940     +0.39990368     -0.91613018
    a   1.4337707      Node   339.45871     +0.80608074     +0.36606444
    e   0.4528770      Incl.    4.57273     +0.43624636     +0.16340843
    P   1.72           H   23.8           G   0.15           U   7
    Residuals in seconds of arc
    130211 703  0.4-  0.3-    130211 H06  0.3+  0.2+    130211 J04  0.2-  0.1+
    130211 703  0.1+  0.2+    130211 H06  0.6+  0.7-    130211 J04  0.2-  0.1+
    130211 703  0.4-  0.2-    130211 300  0.2+  0.2+    130212 H36  0.0   0.0
    130211 703  0.5-  0.1-    130211 300  0.4+  0.1-    130212 H36  0.1-  0.3-
    130211 703  0.1-  0.3+    130211 300  0.5+  0.4-    130212 H36  0.3-  0.1+
    130211 H06  0.0   0.3+    130211 300  0.7+  0.0     130212 718  0.3-  0.6-
    130211 703  0.5-  0.4-    130211 300  0.2+  0.1+    130212 718  0.3+  0.7+
    130211 703  0.1-  0.6+    130211 J04  0.1-  0.1+    130212 718 (0.1+  1.9+)
    
    Ephemeris:
    2013 CV83                a,e,i = 1.43, 0.45, 5                   q = 0.7844
    Date    TT    R. A. (2000) Decl.     Delta      r     Elong.  Phase     V
    2013 01 13    21 35 43.4 +03 27 14   0.1873  0.8440    38.1   134.1    25.9
    ...
    2013 01 28    21 45 13.9 +19 54 44   0.07833 0.9273    41.2   135.6    24.4
    ...
    2013 02 05    22 09 33.1 +62 28 45   0.03563 0.9799    79.2    98.7    20.1
    ...
    2013 02 11    09 19 28.3 +52 29 51   0.04378 1.0216   141.4    37.1    18.6
    2013 02 12    09 23 31.6 +46 09 40   0.04886 1.0287   147.4    31.2    18.6
    2013 02 13    09 26 10.8 +41 02 32   0.05444 1.0358   152.0    26.5    18.8
    ...
    2013 02 19    09 32 53.3 +24 29 44   0.09356 1.0789   164.2    14.4    19.6
    ...
    2013 02 27    09 36 35.4 +16 22 19   0.1529  1.1371   162.6    15.1    20.8
    ...
    2013 03 14    09 43 37.4 +10 44 56   0.2793  1.2459   151.0    22.7    22.6
    
    A. U. Tomatic                (C) Copyright 2013 MPC           M.P.E.C. 2013-C59
    

    Read MPEC 2013-C58 Read MPEC 2013-C60


    MPEC number:

    Enter an MPEC number in one of the following forms:

    • 1997-B01 (the full form)
    • J97B01 (the packed version of the full form)
    • B01 (the abbreviated form)